When you browse on this site, cookies collect data to enhance your experience and personalize the content and advertising you see.
Visit our Privacy Policy to learn more. By continuing to use the site, you agree to this use of cookies and data.
  • In Hungary
  • List of Countries
  • For 7 days
  • Water Temperature
  • Weather Map
  • News
  • Weather Widgets
  • user-avatar
    Login

    Hourly Weather Sosnovo

    Today, 22 January, Wednesday

    Time Temperature Precipitation Wind Pressure Humidity
    00:00 -3°C° 0 mm 6 mps 733 mmHg 75%
    01:00 -3°C° 0 mm 6 mps 733 mmHg 76%
    02:00 -2°C° 0 mm 5 mps 733 mmHg 76%
    03:00 -2°C° 0 mm 5 mps 732 mmHg 78%
    04:00 -2°C° 0 mm 5 mps 731 mmHg 79%
    05:00 -2°C° 0 mm 5 mps 730 mmHg 81%
    06:00 -2°C° 0.4 mm 5 mps 729 mmHg 85%
    07:00 -2°C° 0.4 mm 5 mps 729 mmHg 90%
    08:00 -2°C° 0 mm 5 mps 729 mmHg 94%
    09:00 -2°C° 0.7 mm 5 mps 728 mmHg 90%
    10:00 -2°C° 0.7 mm 5 mps 728 mmHg 86%
    11:00 -3°C° 0.7 mm 6 mps 728 mmHg 82%
    12:00 -2°C° 0.2 mm 5 mps 728 mmHg 79%
    13:00 -2°C° 0.2 mm 5 mps 728 mmHg 76%
    14:00 -2°C° 0.2 mm 5 mps 729 mmHg 73%
    15:00 -4°C° 0 mm 5 mps 729 mmHg 76%
    16:00 -4°C° 0 mm 5 mps 730 mmHg 79%
    17:00 -5°C° 0 mm 5 mps 730 mmHg 82%
    18:00 -5°C° 0 mm 5 mps 731 mmHg 82%
    19:00 -5°C° 0 mm 5 mps 731 mmHg 83%
    20:00 -5°C° 0 mm 6 mps 732 mmHg 84%
    21:00 -6°C° 0.1 mm 6 mps 732 mmHg 82%
    22:00 -6°C° 0.1 mm 6 mps 733 mmHg 80%
    23:00 -6°C° 0.1 mm 6 mps 733 mmHg 78%

    Tomorrow, 23 January, Thursday

    Time Temperature Precipitation Wind Pressure Humidity
    00:00 -8°C° 0 mm 6 mps 734 mmHg 76%
    01:00 -8°C° 0 mm 6 mps 735 mmHg 73%
    02:00 -8°C° 0 mm 6 mps 736 mmHg 71%
    03:00 -8°C° 0 mm 6 mps 736 mmHg 70%
    04:00 -8°C° 0 mm 6 mps 736 mmHg 69%
    05:00 -9°C° 0 mm 6 mps 736 mmHg 68%
    06:00 -8°C° 0 mm 5 mps 737 mmHg 65%
    07:00 -8°C° 0 mm 5 mps 738 mmHg 63%
    08:00 -8°C° 0 mm 5 mps 738 mmHg 60%
    09:00 -7°C° 0 mm 5 mps 738 mmHg 58%
    10:00 -8°C° 0 mm 6 mps 739 mmHg 57%
    11:00 -6°C° 0 mm 6 mps 739 mmHg 55%
    12:00 -6°C° 0 mm 6 mps 739 mmHg 57%
    13:00 -5°C° 0 mm 6 mps 739 mmHg 59%
    14:00 -5°C° 0 mm 6 mps 739 mmHg 61%
    15:00 -5°C° 0 mm 6 mps 739 mmHg 64%
    16:00 -5°C° 0 mm 5 mps 739 mmHg 66%
    17:00 -5°C° 0 mm 4 mps 739 mmHg 68%
    18:00 -5°C° 0 mm 4 mps 740 mmHg 71%
    19:00 -5°C° 0 mm 3 mps 740 mmHg 75%
    20:00 -5°C° 0 mm 3 mps 740 mmHg 78%
    21:00 -5°C° 0 mm 3 mps 740 mmHg 81%
    22:00 -4°C° 0 mm 3 mps 740 mmHg 83%
    23:00 -4°C° 0 mm 3 mps 739 mmHg 85%

    Day after tomorrow, 24 January, Friday

    Time Temperature Precipitation Wind Pressure Humidity
    00:00 -4°C° 0 mm 3 mps 739 mmHg 86%
    01:00 -4°C° 0 mm 3 mps 738 mmHg 86%
    02:00 -4°C° 0 mm 4 mps 738 mmHg 87%
    03:00 -4°C° 0 mm 4 mps 737 mmHg 87%
    04:00 -4°C° 0 mm 4 mps 736 mmHg 88%
    05:00 -5°C° 0 mm 5 mps 735 mmHg 88%
    06:00 -4°C° 0.2 mm 5 mps 734 mmHg 91%
    07:00 -2°C° 0.2 mm 4 mps 734 mmHg 94%
    08:00 -2°C° 0.2 mm 4 mps 733 mmHg 97%
    09:00 -1°C° 0.3 mm 4 mps 733 mmHg 96%
    10:00 0°C° 0.3 mm 4 mps 732 mmHg 95%
    11:00 0°C° 0.3 mm 4 mps 732 mmHg 95%
    12:00 +1°C° 0.1 mm 4 mps 731 mmHg 94%
    13:00 +1°C° 0.1 mm 5 mps 731 mmHg 94%
    14:00 +1°C° 0.1 mm 5 mps 731 mmHg 93%
    15:00 +1°C° 0 mm 5 mps 731 mmHg 93%
    16:00 +1°C° 0 mm 5 mps 730 mmHg 92%
    17:00 +1°C° 0 mm 5 mps 730 mmHg 91%
    18:00 +1°C° 0.4 mm 5 mps 730 mmHg 92%
    19:00 +1°C° 0.4 mm 5 mps 730 mmHg 94%
    20:00 +1°C° 0.4 mm 5 mps 731 mmHg 95%
    21:00 0°C° 0.4 mm 5 mps 730 mmHg 95%
    22:00 0°C° 0.4 mm 4 mps 730 mmHg 96%
    23:00 0°C° 0.4 mm 4 mps 730 mmHg 96%

    25 January, Saturday

    Time Temperature Precipitation Wind Pressure Humidity
    00:00 -1°C° 0.1 mm 4 mps 730 mmHg 95%
    01:00 -1°C° 0.1 mm 4 mps 730 mmHg 94%
    02:00 -1°C° 0.1 mm 4 mps 730 mmHg 93%
    03:00 -2°C° 0 mm 4 mps 730 mmHg 92%
    04:00 -1°C° 0 mm 3 mps 730 mmHg 92%
    05:00 -2°C° 0 mm 3 mps 730 mmHg 92%
    06:00 -2°C° 0 mm 3 mps 730 mmHg 92%
    07:00 -3°C° 0 mm 4 mps 730 mmHg 92%
    08:00 -3°C° 0 mm 4 mps 729 mmHg 92%
    09:00 -2°C° 0 mm 4 mps 729 mmHg 87%
    10:00 -2°C° 0 mm 5 mps 729 mmHg 83%
    11:00 -1°C° 0 mm 5 mps 729 mmHg 78%
    12:00 -2°C° 0.1 mm 6 mps 729 mmHg 78%
    13:00 -2°C° 0.1 mm 7 mps 729 mmHg 78%
    14:00 -2°C° 0.1 mm 8 mps 729 mmHg 78%
    15:00 -3°C° 0.1 mm 7 mps 729 mmHg 76%
    16:00 -3°C° 0.1 mm 7 mps 730 mmHg 74%
    17:00 -3°C° 0.1 mm 6 mps 730 mmHg 72%
    18:00 -4°C° 0 mm 6 mps 731 mmHg 73%
    19:00 -4°C° 0 mm 5 mps 732 mmHg 73%
    20:00 -5°C° 0 mm 5 mps 732 mmHg 74%
    21:00 -5°C° 0 mm 5 mps 733 mmHg 75%
    22:00 -5°C° 0 mm 5 mps 734 mmHg 75%
    23:00 -5°C° 0 mm 5 mps 734 mmHg 76%

    26 January, Sunday

    Time Temperature Precipitation Wind Pressure Humidity
    00:00 -5°C° 0 mm 5 mps 735 mmHg 76%
    01:00 -4°C° 0 mm 4 mps 736 mmHg 77%
    02:00 -5°C° 0 mm 4 mps 736 mmHg 77%
    03:00 -5°C° 0 mm 4 mps 737 mmHg 78%
    04:00 -5°C° 0 mm 4 mps 738 mmHg 79%
    05:00 -5°C° 0 mm 4 mps 738 mmHg 81%
    06:00 -5°C° 0 mm 3 mps 739 mmHg 81%
    07:00 -5°C° 0 mm 3 mps 739 mmHg 82%
    08:00 -5°C° 0 mm 3 mps 740 mmHg 82%
    09:00 -4°C° 0 mm 2 mps 740 mmHg 79%
    10:00 -3°C° 0 mm 2 mps 741 mmHg 76%
    11:00 -2°C° 0 mm 2 mps 741 mmHg 73%
    12:00 -2°C° 0 mm 2 mps 741 mmHg 73%
    13:00 -2°C° 0 mm 2 mps 742 mmHg 73%
    14:00 -1°C° 0 mm 2 mps 742 mmHg 73%
    15:00 -2°C° 0 mm 2 mps 742 mmHg 74%
    16:00 -2°C° 0 mm 2 mps 742 mmHg 75%
    17:00 -2°C° 0 mm 2 mps 741 mmHg 76%
    18:00 -2°C° 0.1 mm 2 mps 741 mmHg 82%
    19:00 -2°C° 0.1 mm 2 mps 741 mmHg 88%
    20:00 -1°C° 0.1 mm 2 mps 741 mmHg 94%
    21:00 -1°C° 0.1 mm 3 mps 741 mmHg 94%
    22:00 -1°C° 0.1 mm 3 mps 741 mmHg 95%
    23:00 -1°C° 0.1 mm 3 mps 741 mmHg 96%

    27 January, Monday

    Time Temperature Precipitation Wind Pressure Humidity
    00:00 -1°C° 0.1 mm 3 mps 741 mmHg 96%
    01:00 -1°C° 0.1 mm 3 mps 741 mmHg 96%
    02:00 -1°C° 0.1 mm 3 mps 741 mmHg 97%
    03:00 0°C° 0.2 mm 3 mps 740 mmHg 97%
    04:00 0°C° 0.2 mm 3 mps 740 mmHg 97%
    05:00 0°C° 0.2 mm 3 mps 740 mmHg 97%
    06:00 0°C° 0.2 mm 3 mps 740 mmHg 97%
    07:00 0°C° 0.2 mm 3 mps 739 mmHg 97%
    08:00 0°C° 0.2 mm 3 mps 739 mmHg 97%
    09:00 0°C° 0.1 mm 3 mps 739 mmHg 96%
    10:00 -1°C° 0.1 mm 4 mps 739 mmHg 96%
    11:00 -1°C° 0.1 mm 4 mps 739 mmHg 95%
    12:00 -1°C° 0 mm 4 mps 738 mmHg 92%
    13:00 -1°C° 0 mm 4 mps 738 mmHg 89%
    14:00 -1°C° 0 mm 4 mps 737 mmHg 87%
    15:00 -1°C° 0.1 mm 4 mps 737 mmHg 90%
    16:00 -2°C° 0.1 mm 4 mps 736 mmHg 93%
    17:00 -2°C° 0.1 mm 4 mps 736 mmHg 96%
    18:00 -2°C° 0.2 mm 4 mps 735 mmHg 97%
    19:00 -2°C° 0.2 mm 4 mps 735 mmHg 97%
    20:00 0°C° 0.2 mm 3 mps 734 mmHg 97%
    21:00 -1°C° 0.3 mm 3 mps 734 mmHg 97%
    22:00 -1°C° 0.3 mm 3 mps 733 mmHg 97%
    23:00 -2°C° 0.3 mm 4 mps 733 mmHg 97%
    Show more